Temp
68 64 62 62 61 58 56 56 55 57 55 52 51 49 48 46 47 48 47 46 46 46 48 47 46 47 47 48 48 49 47 47 42 47 50 51 48 48 49 48 48 48 49
66 66 62 60 60 57 55 55 54 53 53 51 49 47 46 45 46 45 44 45 44 43 44 44 44 47 44 47 48 46 46 46 44 41 46 47 47 48 47 46 47 49 48
65 64 61 59 57 56 54 54 53 51 49 49 47 45 44 44 43 43 42 42 43 43 43 44 43 43 44 47 45 45 45 47 45 43 42 46 47 47 45 45 45 45 48
63 62 60 59 59 58 56 53 50 47 47 46 45 44 42 42 41 41 41 41 41 41 42 42 41 42 42 41 42 41 43 42 43 41 42 42 43 44 43 41 39 42 42
62 62 60 58 57 56 54 50 48 46 45 44 42 40 39 39 40 39 39 40 39 38 38 38 38 33 31 31 35 38 38 38 37 38 37 38 38 38 37 38 36 36 37
62 61 61 57 55 52 48 47 46 44 43 41 40 39 39 41 37 37 37 37 37 37 35 36 36 31 31 30 29 30 29 29 28 30 32 32 33 36 35 33 31 29 28
62 62 60 59 52 49 46 45 42 40 41 40 40 39 38 37 35 33 33 35 35 35 36 35 35 35 31 33 31 31 30 29 28 27 25 28 30 33 31 27 28 28 29
62 61 60 57 52 46 44 41 39 39 38 37 35 35 34 33 33 32 32 35 33 33 34 35 34 34 32 29 30 30 31 31 31 30 29 29 30 30 29 28 27 27 29
62 60 60 54 47 42 38 37 36 35 34 33 34 33 33 32 32 31 32 35 34 33 34 33 33 32 28 27 27 26 28 30 32 31 30 29 30 30 29 27 24 24 23
61 58 57 48 41 37 35 34 34 34 33 34 33 34 33 31 32 31 32 35 34 35 36 33 29 30 26 26 26 26 25 28 27 26 28 28 30 30 30 28 27 22 23
43 40 37 36 35 34 33 33 33 32 33 32 32 33 33 32 32 31 31 35 36 35 35 34 31 26 25 24 24 26 25 23 24 24 27 29 30 30 30 30 28 25 21
35 34 34 33 33 33 33 32 32 33 32 32 32 31 32 32 31 31 32 30 32 33 33 34 30 26 24 23 24 23 23 22 26 27 27 26 26 27 28 28 26 26 26
33 33 33 32 33 33 33 32 32 32 32 30 29 29 29 30 30 31 31 30 28 31 35 26 25 24 24 24 24 23 22 27 27 25 24 25 27 27 27 27 27 27 26
32 32 32 32 32 33 34 34 32 32 30 29 28 28 28 31 31 30 30 30 29 28 26 29 28 26 24 26 24 28 28 29 26 24 24 26 27 26 25 26 24 23 22
33 32 32 32 32 32 33 33 32 32 33 31 31 31 31 30 31 32 31 30 30 30 30 30 27 28 29 30 30 30 30 29 27 26 25 23 23 24 23 24 23 21 18
33 33 33 33 32 32 33 31 32 32 32 34 35 34 33 34 33 32 31 29 27 26 27 26 28 28 28 28 27 27 28 27 26 25 23 22 21 21 20 21 20 19 17
35 33 33 33 32 32 31 30 27 28 31 31 32 32 32 31 30 29 28 28 27 25 25 27 28 27 27 27 27 27 25 26 24 23 21 20 19 18 17 17 17 17 17
34 33 34 33 33 32 32 31 31 29 27 27 29 30 30 29 29 29 28 27 25 25 26 27 27 28 27 26 26 25 24 23 21 20 19 17 17 16 15 15 16 14 14
33 33 33 33 33 33 33 32 32 31 30 28 28 28 29 28 28 29 28 27 27 28 28 28 28 27 26 26 24 23 21 19 18 17 17 17 16 15 14 14 14 12 12
33 32 34 34 33 33 32 32 32 31 30 29 28 28 28 28 25 25 26 27 27 27 27 27 27 27 25 24 23 21 19 18 18 17 16 15 15 14 13 12 12 11 12
35 36 34 35 34 33 33 32 32 32 31 30 30 31 30 28 29 28 28 28 27 26 27 27 25 25 24 23 22 20 18 17 16 15 14 14 13 11 12 12 12 12 12
37 35 36 34 34 33 33 33 32 32 31 31 30 27 27 28 29 29 29 28 28 28 28 25 24 24 23 21 19 17 15 14 14 14 13 12 11 11 11 10 10 10 10
36 35 35 35 34 32 32 33 31 31 31 31 30 27 27 27 28 28 28 28 27 27 25 23 22 21 21 20 18 17 14 13 13 13 10 9 8 8 9 8 8 8 8
36 34 35 33 32 32 31 31 31 31 31 30 30 29 28 28 28 28 27 27 26 24 23 21 20 18 17 15 15 15 14 13 12 9 7 6 5 6 6 7 6 7 7
35 34 33 32 31 31 30 30 30 30 30 29 29 29 28 28 28 27 26 25 23 21 20 19 18 17 15 13 11 10 10 9 6 4 3 4 4 4 4 6 7 8 7
34 34 33 32 31 31 30 30 29 28 28 29 29 28 27 26 27 26 25 23 21 19 18 18 17 16 14 13 12 11 6 3 2 2 3 4 3 4 5 6 5 6 7
MSLP
1004.57 1005.48 1006.73 1007.59 1008.38 1009.05 1009.67 1010.29 1011.03 1012.01 1012.98 1014.43 1015.38 1016.49 1017.47 1018.36 1018.97 1019.18 1020.04 1020.20 1020.82 1021.20 1021.37 1021.77 1022.20 1022.39 1022.30 1022.46 1022.72 1022.48 1022.12 1022.23 1021.69 1021.17 1021.02 1021.19 1021.49 1021.62 1021.66 1021.49 1021.18 1021.05 1020.62
1004.32 1004.80 1006.00 1006.94 1007.89 1008.83 1009.64 1010.33 1010.87 1011.94 1013.06 1014.31 1015.45 1016.40 1017.18 1018.25 1018.89 1019.49 1019.88 1020.56 1021.36 1021.71 1022.02 1021.95 1022.49 1022.91 1022.96 1022.82 1022.59 1022.79 1022.55 1022.66 1022.31 1021.61 1021.42 1021.38 1021.42 1021.40 1021.49 1021.41 1021.13 1020.86 1020.46
1004.16 1004.68 1005.65 1006.51 1007.24 1008.02 1009.05 1010.03 1011.18 1012.22 1013.34 1014.36 1015.32 1016.33 1016.78 1017.99 1018.48 1019.68 1020.31 1020.86 1021.34 1021.67 1021.97 1022.49 1022.75 1023.26 1023.24 1022.75 1022.98 1023.22 1022.82 1022.52 1022.56 1022.17 1021.52 1021.68 1021.35 1021.02 1021.09 1021.00 1020.74 1020.38 1020.15
1003.68 1004.24 1005.28 1006.07 1006.84 1007.53 1008.54 1009.40 1010.69 1012.35 1013.38 1014.22 1015.24 1016.18 1017.05 1018.17 1018.53 1019.89 1020.75 1020.95 1021.53 1021.82 1022.28 1022.77 1023.06 1023.32 1023.66 1023.82 1024.05 1023.77 1023.17 1022.93 1022.61 1022.59 1021.94 1021.66 1021.52 1021.16 1021.31 1021.08 1020.62 1020.41 1020.24
1003.16 1003.50 1004.44 1005.55 1006.55 1007.47 1008.59 1009.76 1010.59 1011.79 1013.17 1014.05 1014.81 1015.93 1017.05 1017.75 1019.05 1020.08 1020.83 1021.22 1021.63 1021.93 1022.70 1023.49 1023.51 1024.26 1024.96 1025.77 1025.38 1024.30 1024.32 1023.70 1023.28 1023.04 1022.66 1022.16 1022.00 1021.90 1021.66 1021.56 1021.21 1020.69 1020.62
1002.59 1003.03 1003.82 1004.73 1006.02 1007.32 1008.99 1010.42 1011.46 1012.24 1012.94 1013.67 1014.37 1015.26 1016.21 1017.66 1019.10 1020.07 1020.81 1021.24 1021.57 1022.21 1022.82 1023.05 1023.58 1024.67 1025.34 1026.00 1025.56 1025.55 1025.94 1025.21 1024.63 1024.42 1023.88 1023.14 1022.92 1022.54 1022.45 1022.30 1022.19 1021.42 1020.16
1001.94 1002.58 1003.49 1004.55 1005.76 1006.99 1008.69 1010.17 1011.35 1012.70 1013.64 1013.80 1014.18 1014.86 1015.89 1017.60 1018.98 1020.19 1020.82 1021.33 1021.85 1022.30 1022.72 1022.93 1023.36 1024.07 1025.10 1025.05 1025.17 1025.16 1025.41 1025.57 1025.34 1025.09 1024.50 1023.78 1023.47 1023.34 1023.52 1023.41 1022.79 1021.94 1021.07
1001.56 1002.15 1003.12 1004.21 1005.90 1007.55 1008.99 1010.01 1011.13 1012.33 1013.05 1013.64 1014.74 1015.71 1016.48 1017.86 1018.84 1020.03 1020.74 1021.45 1022.05 1022.40 1022.84 1022.79 1023.23 1023.91 1024.55 1025.30 1025.26 1024.94 1024.51 1024.41 1024.59 1024.64 1024.70 1024.20 1023.77 1023.95 1024.23 1023.87 1023.15 1022.19 1021.35
1000.85 1001.75 1002.67 1003.99 1005.70 1007.63 1009.26 1010.66 1011.51 1012.09 1012.96 1013.88 1014.95 1015.66 1016.70 1018.10 1019.14 1020.04 1020.88 1021.21 1021.51 1022.49 1022.97 1022.98 1023.32 1024.09 1024.95 1025.28 1025.67 1024.84 1024.46 1024.02 1024.12 1024.41 1024.06 1023.88 1023.88 1023.75 1023.92 1023.54 1022.73 1021.87 1020.46
1000.76 1001.83 1002.82 1004.22 1006.06 1007.61 1009.07 1010.45 1011.74 1012.44 1013.30 1013.98 1014.94 1015.89 1017.13 1018.61 1019.58 1020.23 1020.88 1021.07 1021.30 1021.88 1022.45 1023.02 1023.96 1024.14 1025.22 1025.44 1025.46 1024.67 1024.38 1023.88 1023.83 1024.34 1023.80 1023.34 1023.00 1022.77 1022.94 1022.89 1022.37 1021.69 1020.82
1002.46 1003.32 1004.49 1005.80 1007.26 1008.88 1010.08 1011.13 1011.88 1012.70 1013.39 1014.17 1015.17 1016.31 1017.41 1018.40 1019.23 1020.06 1020.90 1020.83 1021.02 1021.41 1021.60 1022.61 1023.34 1024.35 1025.09 1025.45 1025.28 1024.95 1024.44 1024.76 1024.22 1023.95 1023.21 1022.36 1022.08 1021.97 1021.78 1021.81 1021.89 1021.77 1021.09
1003.40 1004.55 1005.72 1006.78 1008.03 1009.21 1010.36 1011.41 1012.12 1012.85 1013.65 1014.60 1015.63 1016.76 1017.73 1018.33 1019.22 1020.18 1020.86 1021.48 1021.37 1021.55 1021.78 1022.13 1023.01 1024.29 1024.95 1025.08 1024.84 1025.16 1024.78 1024.66 1023.57 1023.02 1022.44 1022.11 1021.95 1021.63 1021.35 1021.44 1021.57 1021.32 1020.94
1004.94 1005.86 1006.70 1007.47 1008.69 1009.27 1010.43 1011.46 1012.31 1013.22 1014.09 1014.99 1015.93 1017.08 1017.82 1018.76 1019.64 1020.35 1021.05 1021.63 1021.88 1021.92 1021.75 1022.92 1023.43 1024.33 1024.61 1024.55 1024.33 1024.42 1024.45 1023.12 1022.98 1022.65 1022.45 1022.20 1021.82 1021.57 1021.32 1020.93 1020.59 1020.20 1019.76
1006.18 1006.46 1007.56 1008.06 1009.30 1010.21 1010.74 1011.76 1012.47 1013.61 1014.62 1015.46 1016.13 1016.77 1017.77 1018.77 1019.49 1020.24 1020.98 1021.54 1021.87 1022.30 1022.71 1022.85 1023.22 1023.79 1023.98 1023.49 1023.81 1023.03 1022.66 1022.58 1022.66 1022.64 1022.25 1021.95 1021.71 1021.38 1020.83 1020.55 1020.05 1019.60 1019.03
1007.11 1007.60 1008.42 1009.17 1009.85 1010.89 1011.49 1012.14 1013.01 1013.92 1014.43 1015.25 1015.95 1016.54 1017.35 1018.13 1018.92 1019.71 1020.45 1020.97 1021.25 1021.59 1022.07 1022.44 1022.41 1022.54 1022.12 1022.37 1021.81 1021.69 1021.95 1021.99 1022.03 1022.08 1021.88 1021.80 1021.61 1021.04 1020.64 1020.38 1019.94 1019.41 1018.82
1007.63 1008.24 1009.11 1009.93 1010.69 1011.21 1011.93 1012.86 1013.79 1014.48 1015.17 1015.76 1015.99 1016.51 1017.29 1017.94 1018.69 1019.60 1020.31 1020.78 1021.41 1021.90 1022.29 1021.89 1021.37 1021.58 1021.68 1021.50 1021.36 1021.41 1021.55 1021.71 1021.80 1021.95 1022.12 1021.83 1021.30 1020.96 1020.58 1020.31 1019.96 1019.30 1018.43
1007.94 1008.65 1009.46 1010.17 1010.77 1011.40 1012.26 1013.05 1014.22 1015.60 1015.88 1016.35 1016.74 1017.09 1017.63 1018.57 1019.04 1019.70 1020.48 1021.02 1021.57 1021.99 1022.11 1021.30 1020.90 1021.01 1021.20 1021.32 1021.24 1021.24 1021.39 1021.62 1022.00 1022.02 1021.91 1021.63 1021.41 1021.13 1020.78 1020.16 1019.58 1018.98 1018.19
1008.37 1009.02 1009.63 1010.35 1011.06 1011.80 1012.38 1013.17 1014.22 1015.02 1015.96 1017.10 1017.76 1017.81 1018.33 1018.95 1019.29 1019.73 1020.54 1021.18 1021.49 1021.84 1021.23 1020.68 1020.54 1020.69 1020.88 1021.05 1021.04 1021.23 1021.48 1021.81 1022.03 1022.00 1021.82 1021.79 1021.57 1021.09 1020.54 1019.98 1019.42 1018.85 1018.26
1008.72 1009.31 1009.94 1010.68 1011.34 1012.11 1012.71 1013.30 1014.09 1015.00 1015.79 1016.79 1017.67 1018.11 1018.57 1018.90 1019.35 1020.04 1020.59 1020.48 1020.21 1020.14 1020.15 1020.16 1020.15 1020.45 1020.71 1020.92 1021.22 1021.55 1021.85 1021.94 1022.02 1021.99 1021.65 1021.47 1021.18 1020.90 1020.43 1019.90 1019.32 1018.91 1018.29
1008.98 1009.63 1010.27 1011.10 1011.70 1012.41 1013.13 1013.68 1014.26 1014.79 1015.37 1016.16 1016.76 1017.22 1018.08 1018.84 1019.29 1019.58 1019.93 1020.02 1019.95 1019.94 1019.90 1020.06 1020.22 1020.40 1020.64 1020.99 1021.33 1021.63 1021.75 1021.71 1021.60 1021.49 1021.38 1021.31 1021.13 1020.81 1020.24 1019.76 1019.32 1018.59 1017.87
1009.41 1010.10 1010.57 1011.31 1011.95 1012.63 1013.02 1013.50 1014.07 1014.52 1015.04 1015.66 1016.10 1016.68 1017.47 1018.00 1018.10 1018.56 1018.78 1019.04 1019.37 1019.58 1019.77 1019.96 1020.24 1020.39 1020.63 1020.92 1021.21 1021.46 1021.58 1021.60 1021.65 1021.60 1021.45 1021.25 1020.95 1020.63 1020.27 1019.72 1018.97 1018.29 1017.48
1009.46 1010.19 1010.71 1011.26 1011.98 1012.48 1012.92 1013.51 1013.97 1014.47 1014.99 1015.52 1016.19 1017.19 1017.75 1018.00 1017.91 1018.07 1018.40 1018.75 1019.06 1019.40 1019.73 1020.14 1020.43 1020.52 1020.68 1021.00 1021.36 1021.65 1021.77 1021.72 1021.65 1021.56 1021.41 1021.28 1021.07 1020.65 1020.09 1019.39 1018.69 1017.92 1017.21
1009.65 1010.17 1010.82 1011.46 1011.98 1012.58 1013.12 1013.57 1014.09 1014.56 1015.04 1015.55 1016.06 1016.91 1017.55 1017.80 1017.91 1018.08 1018.31 1018.69 1019.08 1019.45 1019.91 1020.38 1020.66 1020.84 1020.96 1021.25 1021.55 1021.71 1021.83 1021.72 1021.61 1021.60 1021.61 1021.41 1021.09 1020.54 1019.91 1019.22 1018.42 1017.55 1016.87
1009.80 1010.43 1010.86 1011.51 1012.10 1012.68 1013.19 1013.69 1014.21 1014.67 1015.07 1015.57 1016.00 1016.42 1016.85 1017.29 1017.60 1017.86 1018.29 1018.69 1019.20 1019.65 1020.10 1020.46 1020.87 1021.23 1021.44 1021.84 1022.00 1022.01 1021.79 1021.87 1021.94 1022.08 1022.07 1021.67 1021.12 1020.49 1019.75 1018.89 1018.19 1017.35 1016.41
1010.05 1010.47 1011.03 1011.65 1012.32 1012.74 1013.31 1013.79 1014.31 1014.76 1015.15 1015.54 1015.93 1016.34 1016.72 1017.13 1017.42 1017.82 1018.34 1018.87 1019.45 1020.00 1020.30 1020.50 1020.76 1021.14 1021.33 1021.69 1022.00 1022.14 1022.10 1022.11 1022.31 1022.53 1022.38 1021.75 1020.86 1020.16 1019.49 1018.53 1017.53 1016.58 1015.88
1010.26 1010.74 1011.32 1011.82 1012.41 1012.86 1013.39 1013.78 1014.23 1014.74 1015.10 1015.47 1015.84 1016.30 1016.70 1017.08 1017.44 1017.91 1018.47 1019.00 1019.58 1020.02 1020.33 1020.43 1020.66 1020.85 1021.17 1021.36 1021.46 1021.46 1021.85 1022.20 1022.35 1022.17 1021.79 1021.07 1020.36 1019.58 1018.68 1017.76 1017.15 1016.28 1015.26
Wind_Speed
16 15 15 14 13 10 11 12 12 14 15 16 14 15 13 11 10 8 7 7 6 6 4 4 3 3 4 4 4 4 4 4 6 6 5 6 7 8 9 9 9 10 9
10 13 15 14 15 12 12 13 13 15 17 17 16 16 15 13 11 9 8 8 6 5 4 5 4 4 4 4 4 4 4 5 6 8 8 7 8 8 8 9 9 9 10
12 13 13 14 15 16 14 14 14 15 17 17 16 16 14 12 11 8 7 7 5 5 5 4 4 4 6 3 2 6 4 5 6 7 7 7 7 6 8 9 9 10 9
12 13 13 15 15 16 17 17 16 16 16 18 15 15 13 12 12 10 10 9 7 5 3 3 3 4 5 2 6 4 4 5 6 7 7 7 7 8 8 9 9 9 11
13 14 14 13 14 13 15 16 18 18 17 18 18 16 14 13 10 10 9 9 8 7 5 4 3 9 9 7 5 5 6 5 5 6 7 7 8 9 10 9 11 11 12
12 14 15 13 13 13 14 16 15 17 19 18 18 17 17 11 17 13 9 8 9 8 8 6 6 5 6 4 2 2 5 4 5 6 8 8 11 10 10 10 11 11 12
13 14 14 15 14 14 16 16 17 16 15 17 17 18 17 14 22 17 11 7 6 6 6 6 6 5 4 5 9 9 9 8 7 6 8 9 12 11 12 13 14 13 13
14 13 14 14 15 15 15 16 17 15 15 15 15 15 13 13 23 19 15 9 7 6 6 5 6 5 4 1 6 7 6 6 6 5 9 10 11 11 13 13 14 16 14
13 13 14 14 14 15 14 13 13 14 14 13 13 14 14 15 23 20 13 9 9 9 9 7 5 5 6 1 6 7 7 7 5 10 10 12 16 17 14 10 10 12 12
11 9 8 14 12 13 15 15 12 13 12 10 12 12 17 15 21 20 13 6 8 7 8 9 7 3 3 2 6 6 7 6 7 10 10 11 13 11 13 11 9 12 12
12 12 13 14 14 13 12 11 11 11 12 13 13 11 14 14 16 19 16 7 6 6 6 7 9 10 5 3 5 7 6 8 9 9 9 8 8 9 7 7 9 10 11
13 13 13 14 11 12 14 9 11 13 14 13 13 10 9 11 14 15 14 8 2 7 7 4 9 9 4 4 6 3 8 8 7 7 8 8 8 8 8 8 10 11 11
10 11 12 12 10 11 13 13 11 11 11 10 9 8 8 7 8 14 12 8 3 4 4 9 11 5 5 8 12 8 8 6 6 7 8 9 8 9 10 10 10 12 13
9 11 10 12 11 10 9 9 10 9 9 9 9 9 8 9 9 9 8 6 5 6 5 4 3 4 7 6 6 10 6 5 6 7 9 9 9 10 9 9 10 10 11
10 10 10 10 12 10 9 8 8 8 9 9 8 9 9 9 9 12 11 9 8 6 6 4 6 7 6 6 5 4 5 6 7 8 9 10 10 10 10 9 10 10 12
12 10 9 9 9 9 10 10 15 11 10 9 10 8 5 6 16 14 10 10 11 8 4 6 6 5 5 5 6 6 7 7 8 8 10 11 10 10 10 10 10 11 12
11 11 9 9 9 10 10 10 10 11 15 12 12 14 12 13 17 14 11 10 8 5 6 6 5 4 5 6 7 7 8 7 8 9 10 10 10 11 12 11 11 11 11
10 12 9 9 8 8 9 9 9 10 9 7 8 10 12 15 15 14 12 8 9 10 7 6 5 5 5 6 7 7 8 8 8 9 10 10 10 10 10 11 11 12 12
10 8 8 8 8 9 8 8 8 8 9 9 8 9 10 13 13 13 14 7 6 6 6 7 5 4 5 6 6 6 8 8 9 9 10 9 9 10 11 11 11 15 16
9 14 11 8 8 8 7 7 8 8 8 8 8 8 9 10 9 9 9 8 7 6 5 5 5 5 5 6 6 7 8 9 9 9 9 9 9 10 10 11 11 12 12
9 10 12 10 9 8 7 7 7 7 7 6 6 7 12 8 7 9 8 8 6 5 5 4 5 6 5 6 6 7 8 9 9 9 9 10 9 10 11 11 12 12 12
9 10 9 8 8 7 8 7 7 7 6 6 6 7 8 5 5 5 5 4 3 2 2 4 5 6 6 6 6 7 9 9 9 9 10 10 10 11 11 11 12 12 12
9 9 9 9 8 9 7 7 7 6 7 6 6 8 6 6 6 6 5 2 2 1 2 3 5 6 6 5 6 7 8 9 9 9 10 11 11 11 11 12 12 12 12
10 10 10 9 8 8 7 7 6 7 6 6 5 5 6 6 6 4 4 1 1 2 2 3 4 6 6 6 7 8 8 8 8 9 13 11 12 13 12 12 13 15 14
9 7 8 8 8 7 7 7 6 6 6 5 5 5 4 4 4 3 2 2 1 3 5 5 4 7 8 8 9 11 12 11 8 11 10 13 14 16 13 12 14 13 16
9 8 8 7 7 7 6 7 6 6 5 5 4 4 4 4 3 2 1 1 2 4 6 5 6 8 9 9 11 11 7 9 11 13 11 11 12 11 11 14 18 13 17
Wind_Direction
215 186 197 206 206 188 177 173 167 162 153 162 158 155 155 153 152 148 148 129 157 152 162 162 189 156 208 205 223 244 252 255 269 281 302 305 302 302 311 319 315 310 313
231 200 193 195 193 190 179 179 164 163 163 160 159 155 155 154 155 145 146 146 157 161 173 162 177 215 220 230 234 261 272 278 273 284 291 294 296 306 307 305 310 309 318
224 213 202 202 189 187 177 168 165 160 157 161 156 160 149 147 138 141 132 150 152 153 169 195 179 233 236 236 284 258 265 269 270 284 295 292 298 309 311 310 307 316 307
219 207 213 203 204 191 178 173 156 156 163 160 154 150 145 151 133 144 161 157 155 150 133 194 149 232 288 312 265 269 281 292 290 290 297 304 311 313 320 316 320 320 318
219 208 204 199 201 184 183 162 162 160 162 158 149 145 145 139 152 157 162 159 156 139 156 182 160 59 51 18 314 346 326 307 318 307 305 313 311 325 327 328 317 322 312
219 216 204 187 185 170 160 167 163 163 164 158 154 148 146 153 145 144 139 154 161 172 176 173 145 148 185 213 217 281 300 305 311 313 314 314 312 323 323 327 317 311 309
222 214 206 197 171 167 163 172 166 168 163 158 151 145 142 142 144 140 147 148 163 175 188 174 183 145 210 252 214 235 236 230 241 281 288 293 307 325 325 316 309 307 302
222 213 205 183 175 161 169 172 167 165 162 148 142 143 141 146 148 151 162 154 164 173 198 187 188 201 137 239 294 284 277 265 268 278 295 298 305 317 307 304 303 296 286
220 214 208 176 166 163 164 170 159 148 146 143 149 145 138 143 151 155 164 172 175 183 193 184 211 186 116 306 288 277 282 284 261 262 274 277 286 292 286 293 296 301 296
227 209 198 148 148 147 150 151 152 144 145 143 137 131 135 146 157 160 171 175 196 197 179 149 165 201 128 268 282 288 280 293 338 309 300 294 277 273 276 270 288 291 299
70 84 90 106 117 128 133 144 145 142 134 131 129 129 140 155 164 165 184 215 203 190 199 202 157 163 175 232 289 288 328 329 301 288 273 296 301 289 283 291 301 298 297
102 109 119 125 132 143 145 139 135 135 130 128 132 133 140 144 155 171 188 222 302 194 210 196 123 154 176 246 262 319 310 291 275 293 307 307 302 299 306 311 303 282 274
103 119 125 122 136 137 136 133 128 127 129 131 133 135 132 145 154 174 184 190 200 270 206 91 112 150 221 253 232 235 261 271 306 309 311 300 304 312 302 289 289 288 287
113 114 118 118 119 123 124 125 125 134 135 138 142 144 147 169 163 165 182 183 187 193 152 168 192 245 270 270 255 238 240 305 314 295 292 304 310 305 302 306 302 304 298
114 114 115 121 122 123 112 122 127 129 141 148 155 158 164 176 171 171 182 189 183 197 187 198 212 228 242 245 275 300 294 296 305 301 306 313 305 300 306 307 305 307 297
124 121 127 129 128 123 117 101 81 100 131 153 143 150 137 168 153 153 156 124 116 134 199 240 241 248 270 296 302 299 298 299 305 321 313 299 305 309 308 311 303 293 299
133 131 128 129 128 126 123 118 114 90 87 94 107 123 127 143 146 152 158 164 160 148 235 248 260 274 277 282 288 297 299 310 326 302 306 304 310 307 306 300 300 299 299
127 129 133 129 125 124 125 128 134 140 133 123 129 139 145 157 157 160 161 173 181 212 260 260 265 271 279 284 292 301 311 318 309 306 308 309 297 299 300 300 301 305 305
129 124 119 118 123 126 127 130 136 150 150 150 148 148 154 159 168 186 177 227 242 231 227 243 272 283 289 301 303 308 306 301 305 296 293 298 300 306 299 297 302 304 300
110 116 121 122 125 128 133 141 149 153 151 153 168 170 163 181 192 194 200 226 240 252 266 277 285 293 300 298 301 300 296 295 298 304 306 306 301 298 298 303 301 298 300
134 138 127 142 145 150 149 151 155 156 159 167 171 164 167 199 197 199 218 213 223 243 260 278 295 295 295 293 288 292 298 305 307 304 301 299 301 305 300 296 296 297 298
136 138 144 141 146 148 151 152 157 162 167 173 152 131 150 207 235 227 234 237 247 261 296 310 301 302 311 312 311 305 297 296 299 301 302 306 304 299 297 297 298 300 299
141 143 143 147 148 138 152 153 157 167 170 180 172 153 184 211 228 236 235 235 206 276 321 299 298 302 306 304 299 301 299 295 300 310 303 301 300 297 300 300 295 299 302
144 148 151 140 146 157 155 157 165 177 176 179 190 192 187 198 218 225 238 181 18 321 280 255 270 279 294 301 299 295 298 310 315 310 303 296 296 298 294 297 300 294 291
148 145 134 148 154 160 156 168 171 181 185 186 187 207 205 209 219 221 215 160 224 284 296 291 278 279 285 293 289 294 288 296 309 306 293 284 286 293 289 285 288 295 304
152 151 151 154 162 161 168 180 176 179 187 193 199 205 209 215 218 206 173 242 263 267 265 274 272 280 289 288 286 294 333 316 298 287 281 284 287 287 287 299 303 295 292